Location: Rometta
(44.2000°N, 10.0500°E)
Time: 12:11:18
(UTC+00:00)

Cosmos 1603 - Pass Details

Date: 20 January 2021
Orbit: 829 x 861 km, 71.0° (Epoch: 07 March)

Event Time Altitude Azimuth Distance (km) Brightness Sun altitude
Rises 16:43:55 0° 334° (NNW) 3,420 6.9 -5.8°
Reaches altitude 10° 16:46:22 10° 334° (NNW) 2,485 6.2 -6.2°
Maximum altitude 16:52:05 84° 247° (WSW) 865 3.9 -7.1°
Drops below altitude 10° 16:57:49 10° 159° (SSE) 2,486 6.2 -8.1°
Sets 17:00:16 0° 159° (SSE) 3,421 6.9 -8.5°
